Simultaneous Nadir Overpasses (SNOs) Predictions

Prediction of SNOs between NPP and PACE Satellite Orbit:

Table of predicted SNOs for the next 14.0 days since TLE Epoch: 9/7/2024
Index Date (NPP) Time (NPP) Lat,Lon (NPP) SZA (NPP ) Date (PACE) Time (PACE) Lat,Lon (PACE) SZA (PACE ) Distance(km) Time Diff (sec)
1 09/08/2024 03:00:39 -79.89, -82.83 103.60 09/08/2024 03:00:45 -79.89, -82.86 103.60 0.74 6
2 09/10/2024 06:36:19 79.94, 42.73 77.29 09/10/2024 06:37:08 79.95, 42.58 77.29 3.09 49
3 09/10/2024 07:27:00 -79.82,-148.82 102.92 09/10/2024 07:26:13 -79.82,-148.69 102.92 2.73 47
4 09/12/2024 11:02:39 79.86, -23.07 77.95 09/12/2024 11:02:34 79.86, -23.13 77.96 1.14 5
5 09/14/2024 14:38:19 -79.93, 102.33 101.13 09/14/2024 14:38:54 -79.94, 102.20 101.12 2.79 35
6 09/14/2024 15:28:58 79.76, -88.69 78.57 09/14/2024 15:27:58 79.76, -88.72 78.60 0.68 60
7 09/16/2024 18:14:10 80.32,-135.86 80.44 09/16/2024 18:15:23 80.38,-135.58 80.42 8.24 73
8 09/16/2024 19:04:39 -79.87, 36.35 100.43 09/16/2024 19:04:17 -79.86, 36.49 100.44 3.01 22
9 09/18/2024 22:40:18 79.94, 161.77 80.51 09/18/2024 22:40:34 79.94, 161.83 80.49 1.29 16
10 09/21/2024 02:15:58 -80.03, -73.08 98.51 09/21/2024 02:16:50 -80.03, -72.93 98.56 2.84 52



Historial Predications of SNOs between NPP and PACE
